{"data":{"norad_id":43812,"intl_designator":"2018-099BG","name":"GLOBAL-2","alt_names":[],"object_type":"PAYLOAD","status":"ACTIVE","operator":null,"country":"US","launch_date":"2018-12-03","launch_site_code":"AFWTR","launch_vehicle":null,"mission":null,"orbit_class":"UNKNOWN","rcs_meters":null,"size_class":null,"mass_kg":null,"dimensions":null,"purposes":[],"wikipedia_slug":null,"has_3d_model":false,"image_url":null,"decayed_at":null,"tle_current":{"epoch":"2026-09-20T00:54:24.897888Z","epoch_age_seconds":98310,"freshness":"FRESH","line1":"1 43812U 18099BG  26263.03778817  .00002012  00000+0  13062-3 0  9994","line2":"2 43812  97.3491 295.6003 0005859 172.1465 187.9857 15.09118132426212","mean_motion":15.09118132,"eccentricity":0.0005859,"inclination_deg":97.3491,"raan_deg":295.6003,"arg_perigee_deg":172.1465,"mean_anomaly_deg":187.9857,"bstar":0.00013062,"rev_number":42621,"period_min":95.41996543979,"perigee_km":534.84069317858,"apogee_km":542.94606937936,"semimajor_km":6917.030381279,"source":"CELESTRAK","updated_at":"2026-09-20T09:00:14.410653Z"}}}